• In Germany
  • List of Countries
  • For 7 days
  • Water Temperature
  • Satellite Maps
  • Weather Map
  • Weather Widgets
  • user-avatar
    Login

    Hourly Weather Lankaran

    Today, 28 June, Wednesday

    Time Temperature Precipitation Wind Pressure Humidity
    00:00 +16°C° 0 mm 1 mps 633 mmHg 89%
    01:00 +16°C° 0 mm 1 mps 633 mmHg 89%
    02:00 +16°C° 0 mm 1 mps 633 mmHg 89%
    03:00 +15°C° 0 mm 1 mps 633 mmHg 90%
    04:00 +18°C° 0 mm 1 mps 633 mmHg 87%
    05:00 +19°C° 0 mm 1 mps 634 mmHg 83%
    06:00 +21°C° 0 mm 1 mps 634 mmHg 80%
    07:00 +21°C° 0 mm 2 mps 635 mmHg 72%
    08:00 +24°C° 0 mm 2 mps 635 mmHg 64%
    09:00 +26°C° 0 mm 2 mps 635 mmHg 56%
    10:00 +27°C° 0 mm 2 mps 635 mmHg 52%
    11:00 +28°C° 0 mm 3 mps 635 mmHg 49%
    12:00 +29°C° 0 mm 3 mps 635 mmHg 46%
    13:00 +29°C° 0 mm 3 mps 635 mmHg 47%
    14:00 +29°C° 0 mm 3 mps 634 mmHg 47%
    15:00 +29°C° 0 mm 3 mps 634 mmHg 48%
    16:00 +28°C° 0 mm 3 mps 633 mmHg 53%
    17:00 +27°C° 0 mm 3 mps 633 mmHg 58%
    18:00 +25°C° 0 mm 2 mps 632 mmHg 64%
    19:00 +23°C° 0 mm 2 mps 632 mmHg 70%
    20:00 +21°C° 0 mm 1 mps 632 mmHg 77%
    21:00 +20°C° 0 mm 1 mps 632 mmHg 84%
    22:00 +19°C° 0 mm 1 mps 631 mmHg 84%
    23:00 +18°C° 0 mm 1 mps 631 mmHg 85%

    Tomorrow, 29 June, Thursday

    Time Temperature Precipitation Wind Pressure Humidity
    00:00 +18°C° 0 mm 1 mps 631 mmHg 85%
    01:00 +16°C° 0 mm 1 mps 631 mmHg 85%
    02:00 +16°C° 0 mm 1 mps 631 mmHg 84%
    03:00 +15°C° 0 mm 1 mps 631 mmHg 84%
    04:00 +17°C° 0 mm 2 mps 631 mmHg 79%
    05:00 +18°C° 0 mm 2 mps 632 mmHg 74%
    06:00 +19°C° 0 mm 2 mps 632 mmHg 69%
    07:00 +21°C° 0 mm 2 mps 633 mmHg 59%
    08:00 +24°C° 0 mm 2 mps 633 mmHg 49%
    09:00 +26°C° 0 mm 3 mps 634 mmHg 39%
    10:00 +27°C° 0 mm 3 mps 634 mmHg 35%
    11:00 +27°C° 0 mm 3 mps 634 mmHg 31%
    12:00 +28°C° 0 mm 4 mps 634 mmHg 27%
    13:00 +28°C° 0 mm 4 mps 634 mmHg 27%
    14:00 +28°C° 0 mm 4 mps 633 mmHg 26%
    15:00 +28°C° 0 mm 4 mps 633 mmHg 26%
    16:00 +27°C° 0 mm 3 mps 633 mmHg 29%
    17:00 +26°C° 0 mm 3 mps 632 mmHg 33%
    18:00 +24°C° 0 mm 2 mps 632 mmHg 36%
    19:00 +21°C° 0 mm 2 mps 632 mmHg 41%
    20:00 +20°C° 0 mm 1 mps 631 mmHg 46%
    21:00 +18°C° 0 mm 1 mps 631 mmHg 50%
    22:00 +16°C° 0 mm 1 mps 631 mmHg 47%
    23:00 +16°C° 0 mm 1 mps 631 mmHg 44%

    Day after tomorrow, 30 June, Friday

    Time Temperature Precipitation Wind Pressure Humidity
    00:00 +15°C° 0 mm 1 mps 631 mmHg 41%
    01:00 +15°C° 0 mm 2 mps 631 mmHg 39%
    02:00 +14°C° 0 mm 2 mps 631 mmHg 37%
    03:00 +14°C° 0 mm 2 mps 630 mmHg 35%
    04:00 +15°C° 0 mm 2 mps 631 mmHg 34%
    05:00 +17°C° 0 mm 2 mps 632 mmHg 34%
    06:00 +19°C° 0 mm 2 mps 632 mmHg 33%
    07:00 +20°C° 0 mm 2 mps 633 mmHg 29%
    08:00 +22°C° 0 mm 3 mps 633 mmHg 25%
    09:00 +25°C° 0 mm 3 mps 634 mmHg 21%
    10:00 +26°C° 0 mm 4 mps 634 mmHg 20%
    11:00 +27°C° 0 mm 4 mps 634 mmHg 20%
    12:00 +27°C° 0 mm 5 mps 634 mmHg 20%
    13:00 +27°C° 0 mm 5 mps 634 mmHg 23%
    14:00 +27°C° 0 mm 5 mps 634 mmHg 25%
    15:00 +27°C° 0 mm 5 mps 633 mmHg 27%
    16:00 +25°C° 0 mm 5 mps 633 mmHg 32%
    17:00 +23°C° 0 mm 4 mps 633 mmHg 37%
    18:00 +21°C° 0 mm 3 mps 633 mmHg 42%
    19:00 +19°C° 0 mm 3 mps 633 mmHg 50%
    20:00 +17°C° 0 mm 3 mps 633 mmHg 58%
    21:00 +15°C° 0 mm 2 mps 633 mmHg 65%
    22:00 +14°C° 0 mm 2 mps 633 mmHg 62%
    23:00 +13°C° 0 mm 3 mps 633 mmHg 59%

    1 July, Saturday

    Time Temperature Precipitation Wind Pressure Humidity
    00:00 +12°C° 0 mm 3 mps 632 mmHg 56%
    01:00 +12°C° 0 mm 3 mps 632 mmHg 55%
    02:00 +12°C° 0 mm 3 mps 632 mmHg 55%
    03:00 +12°C° 0 mm 3 mps 632 mmHg 55%
    04:00 +13°C° 0 mm 3 mps 633 mmHg 51%
    05:00 +16°C° 0 mm 3 mps 633 mmHg 47%
    06:00 +17°C° 0 mm 3 mps 634 mmHg 43%
    07:00 +19°C° 0 mm 3 mps 635 mmHg 38%
    08:00 +22°C° 0 mm 4 mps 635 mmHg 33%
    09:00 +25°C° 0 mm 4 mps 636 mmHg 28%
    10:00 +25°C° 0 mm 5 mps 636 mmHg 27%
    11:00 +26°C° 0 mm 5 mps 636 mmHg 26%
    12:00 +27°C° 0 mm 6 mps 636 mmHg 24%
    13:00 +27°C° 0 mm 5 mps 636 mmHg 26%
    14:00 +27°C° 0 mm 5 mps 636 mmHg 28%
    15:00 +27°C° 0 mm 5 mps 635 mmHg 30%
    16:00 +26°C° 0 mm 5 mps 635 mmHg 34%
    17:00 +25°C° 0 mm 4 mps 635 mmHg 38%
    18:00 +22°C° 0 mm 3 mps 635 mmHg 43%
    19:00 +20°C° 0 mm 3 mps 634 mmHg 50%
    20:00 +18°C° 0 mm 2 mps 634 mmHg 58%
    21:00 +15°C° 0 mm 2 mps 634 mmHg 66%
    22:00 +15°C° 0 mm 2 mps 634 mmHg 63%
    23:00 +15°C° 0 mm 2 mps 634 mmHg 59%

    2 July, Sunday

    Time Temperature Precipitation Wind Pressure Humidity
    00:00 +14°C° 0 mm 2 mps 633 mmHg 56%
    01:00 +15°C° 0 mm 2 mps 633 mmHg 55%
    02:00 +15°C° 0 mm 2 mps 633 mmHg 54%
    03:00 +15°C° 0 mm 2 mps 633 mmHg 52%
    04:00 +16°C° 0 mm 2 mps 634 mmHg 50%
    05:00 +18°C° 0 mm 2 mps 634 mmHg 48%
    06:00 +20°C° 0 mm 1 mps 635 mmHg 46%
    07:00 +21°C° 0 mm 2 mps 635 mmHg 41%
    08:00 +24°C° 0 mm 2 mps 635 mmHg 37%
    09:00 +26°C° 0 mm 3 mps 636 mmHg 32%
    10:00 +27°C° 0 mm 3 mps 636 mmHg 30%
    11:00 +28°C° 0 mm 3 mps 636 mmHg 29%
    12:00 +29°C° 0 mm 4 mps 635 mmHg 27%
    13:00 +30°C° 0 mm 4 mps 635 mmHg 26%
    14:00 +30°C° 0 mm 4 mps 635 mmHg 26%
    15:00 +30°C° 0 mm 4 mps 634 mmHg 25%
    16:00 +28°C° 0 mm 4 mps 634 mmHg 28%
    17:00 +27°C° 0 mm 3 mps 634 mmHg 31%
    18:00 +26°C° 0 mm 3 mps 633 mmHg 35%
    19:00 +23°C° 0 mm 2 mps 633 mmHg 40%
    20:00 +20°C° 0 mm 2 mps 632 mmHg 45%
    21:00 +17°C° 0 mm 2 mps 632 mmHg 50%
    22:00 +19°C° 0.1 mm 1 mps 632 mmHg 49%
    23:00 +19°C° 0.1 mm 1 mps 632 mmHg 49%

    3 July, Monday

    Time Temperature Precipitation Wind Pressure Humidity
    00:00 +19°C° 0.1 mm 1 mps 632 mmHg 48%
    01:00 +19°C° 0.1 mm 1 mps 632 mmHg 49%
    02:00 +18°C° 0.1 mm 1 mps 631 mmHg 50%
    03:00 +18°C° 0.1 mm 1 mps 631 mmHg 51%
    04:00 +19°C° 0.1 mm 1 mps 632 mmHg 49%
    05:00 +21°C° 0.1 mm 1 mps 632 mmHg 48%
    06:00 +22°C° 0.1 mm 1 mps 633 mmHg 46%
    07:00 +24°C° 0.1 mm 1 mps 633 mmHg 39%
    08:00 +26°C° 0.1 mm 1 mps 633 mmHg 32%
    09:00 +28°C° 0.1 mm 2 mps 634 mmHg 25%
    10:00 +29°C° 0 mm 2 mps 634 mmHg 24%
    11:00 +30°C° 0 mm 2 mps 633 mmHg 22%
    12:00 +31°C° 0 mm 2 mps 633 mmHg 20%
    13:00 +31°C° 0 mm 3 mps 633 mmHg 21%
    14:00 +33°C° 0 mm 3 mps 633 mmHg 22%
    15:00 +33°C° 0 mm 3 mps 632 mmHg 22%
    16:00 +30°C° 0 mm 3 mps 632 mmHg 26%
    17:00 +29°C° 0 mm 3 mps 632 mmHg 30%
    18:00 +28°C° 0 mm 2 mps 631 mmHg 34%
    19:00 +26°C° 0 mm 2 mps 631 mmHg 39%
    20:00 +24°C° 0 mm 2 mps 630 mmHg 43%
    21:00 +20°C° 0 mm 2 mps 630 mmHg 48%
    22:00 +20°C° 0.2 mm 2 mps 630 mmHg 47%
    23:00 +20°C° 0.2 mm 2 mps 630 mmHg 46%
    Show more